Tracking 20040 objects as of 19-Nov-2019
Live streaming from Space Station
objects crossing your sky now

OPS 4029

Track OPS 4029 now!
OPS 4029 is classified as:


NORAD ID: 12930
Int'l Code: 1981-107A
Perigee: 32,037.3 km
Apogee: 39,532.4 km
Inclination: 7.0 °
Period: 1,435.6 minutes
Semi major axis: 42155 km
RCS: Unknown
Launch date: October 31, 1981
Source: United States (US)
Launch site: AIR FORCE EASTERN TEST RANGE (AFETR)
aabbcc
Your satellite tracking list
Your tracking list is empty




NASA's NSSDC Master Catalog

Two Line Element Set (TLE):
1 12930U 81107A   19249.44899276 0.00000000  00000-0  00000-0 0    09
2 12930   7.0282 351.9031 0888976 346.7284  11.0831  1.00303602    07
Source of the keplerian elements: McCants